• In Uzbekistan
  • List of Countries
  • For 7 days
  • Water Temperature
  • Satellite Maps
  • Weather Map
  • Weather Widgets
  • user-avatar
    Login

    Hourly Weather Balatonboglár

    Today, 22 September, Saturday

    Time Temperature Precipitation Wind Pressure Humidity
    00:00 +20°C° 0 mm 2 mps 749 mmHg 62%
    01:00 +19°C° 0 mm 2 mps 749 mmHg 65%
    02:00 +19°C° 0 mm 3 mps 750 mmHg 67%
    03:00 +19°C° 0 mm 4 mps 750 mmHg 69%
    04:00 +19°C° 0 mm 5 mps 751 mmHg 71%
    05:00 +19°C° 0 mm 6 mps 751 mmHg 66%
    06:00 +18°C° 0 mm 8 mps 752 mmHg 61%
    07:00 +18°C° 0 mm 9 mps 753 mmHg 56%
    08:00 +17°C° 0 mm 8 mps 754 mmHg 57%
    09:00 +16°C° 0 mm 8 mps 755 mmHg 57%
    10:00 +15°C° 0 mm 8 mps 756 mmHg 58%
    11:00 +14°C° 0.1 mm 7 mps 756 mmHg 59%
    12:00 +14°C° 0.1 mm 5 mps 757 mmHg 60%
    13:00 +13°C° 0.1 mm 4 mps 757 mmHg 61%
    14:00 +13°C° 0.1 mm 4 mps 757 mmHg 64%
    15:00 +13°C° 0.1 mm 3 mps 757 mmHg 67%
    16:00 +13°C° 0.1 mm 2 mps 757 mmHg 70%
    17:00 +13°C° 0 mm 2 mps 757 mmHg 71%
    18:00 +13°C° 0 mm 2 mps 757 mmHg 71%
    19:00 +13°C° 0 mm 2 mps 757 mmHg 71%
    20:00 +13°C° 0 mm 2 mps 757 mmHg 71%
    21:00 +13°C° 0 mm 2 mps 757 mmHg 71%
    22:00 +13°C° 0 mm 2 mps 757 mmHg 71%
    23:00 +13°C° 0 mm 2 mps 757 mmHg 71%

    Tomorrow, 23 September, Sunday

    Time Temperature Precipitation Wind Pressure Humidity
    00:00 +13°C° 0 mm 2 mps 757 mmHg 71%
    01:00 +13°C° 0 mm 1 mps 757 mmHg 71%
    02:00 +13°C° 0 mm 1 mps 756 mmHg 70%
    03:00 +13°C° 0 mm 1 mps 756 mmHg 70%
    04:00 +12°C° 0 mm 0 mps 756 mmHg 70%
    05:00 +14°C° 0 mm 1 mps 756 mmHg 68%
    06:00 +14°C° 0 mm 1 mps 756 mmHg 67%
    07:00 +14°C° 0 mm 2 mps 756 mmHg 65%
    08:00 +15°C° 0 mm 2 mps 755 mmHg 58%
    09:00 +17°C° 0 mm 2 mps 755 mmHg 52%
    10:00 +18°C° 0 mm 3 mps 755 mmHg 45%
    11:00 +20°C° 0 mm 3 mps 754 mmHg 42%
    12:00 +22°C° 0 mm 4 mps 754 mmHg 40%
    13:00 +25°C° 0 mm 4 mps 753 mmHg 38%
    14:00 +26°C° 0 mm 4 mps 752 mmHg 40%
    15:00 +26°C° 0 mm 3 mps 752 mmHg 42%
    16:00 +27°C° 0 mm 3 mps 751 mmHg 44%
    17:00 +25°C° 0 mm 3 mps 751 mmHg 50%
    18:00 +22°C° 0 mm 3 mps 750 mmHg 57%
    19:00 +21°C° 0 mm 3 mps 750 mmHg 64%
    20:00 +21°C° 0 mm 4 mps 749 mmHg 64%
    21:00 +21°C° 0 mm 4 mps 748 mmHg 64%
    22:00 +21°C° 0 mm 5 mps 748 mmHg 65%
    23:00 +21°C° 0 mm 6 mps 747 mmHg 66%

    Day after tomorrow, 24 September, Monday

    Time Temperature Precipitation Wind Pressure Humidity
    00:00 +21°C° 0 mm 7 mps 746 mmHg 68%
    01:00 +22°C° 0 mm 8 mps 745 mmHg 69%
    02:00 +21°C° 0.5 mm 7 mps 746 mmHg 72%
    03:00 +21°C° 0.5 mm 6 mps 746 mmHg 75%
    04:00 +20°C° 0.5 mm 5 mps 747 mmHg 78%
    05:00 +17°C° 0.3 mm 6 mps 749 mmHg 75%
    06:00 +15°C° 0.3 mm 8 mps 750 mmHg 72%
    07:00 +12°C° 0.3 mm 9 mps 752 mmHg 68%
    08:00 +13°C° 0.2 mm 9 mps 753 mmHg 63%
    09:00 +13°C° 0.2 mm 8 mps 755 mmHg 58%
    10:00 +15°C° 0.2 mm 8 mps 756 mmHg 53%
    11:00 +16°C° 0 mm 8 mps 757 mmHg 47%
    12:00 +17°C° 0 mm 9 mps 758 mmHg 40%
    13:00 +18°C° 0 mm 9 mps 758 mmHg 34%
    14:00 +17°C° 0 mm 8 mps 758 mmHg 34%
    15:00 +17°C° 0 mm 8 mps 759 mmHg 34%
    16:00 +16°C° 0 mm 7 mps 759 mmHg 35%
    17:00 +15°C° 0 mm 6 mps 759 mmHg 38%
    18:00 +13°C° 0 mm 5 mps 760 mmHg 42%
    19:00 +12°C° 0 mm 3 mps 760 mmHg 45%
    20:00 +11°C° 0 mm 3 mps 761 mmHg 47%
    21:00 +11°C° 0 mm 3 mps 761 mmHg 49%
    22:00 +10°C° 0 mm 3 mps 762 mmHg 51%
    23:00 +9°C° 0 mm 3 mps 762 mmHg 53%

    25 September, Tuesday

    Time Temperature Precipitation Wind Pressure Humidity
    00:00 +9°C° 0 mm 3 mps 762 mmHg 56%
    01:00 +9°C° 0 mm 3 mps 763 mmHg 58%
    02:00 +8°C° 0 mm 3 mps 763 mmHg 61%
    03:00 +8°C° 0 mm 3 mps 763 mmHg 64%
    04:00 +8°C° 0 mm 3 mps 763 mmHg 66%
    05:00 +7°C° 0 mm 4 mps 764 mmHg 65%
    06:00 +7°C° 0 mm 5 mps 764 mmHg 64%
    07:00 +8°C° 0 mm 5 mps 764 mmHg 63%
    08:00 +9°C° 0 mm 6 mps 765 mmHg 55%
    09:00 +11°C° 0 mm 6 mps 765 mmHg 47%
    10:00 +13°C° 0 mm 6 mps 765 mmHg 39%
    11:00 +14°C° 0 mm 6 mps 765 mmHg 36%
    12:00 +15°C° 0 mm 6 mps 765 mmHg 33%
    13:00 +15°C° 0 mm 6 mps 765 mmHg 31%
    14:00 +15°C° 0 mm 6 mps 764 mmHg 32%
    15:00 +15°C° 0 mm 6 mps 764 mmHg 33%
    16:00 +15°C° 0 mm 5 mps 764 mmHg 35%
    17:00 +13°C° 0 mm 4 mps 764 mmHg 41%
    18:00 +11°C° 0 mm 3 mps 765 mmHg 47%
    19:00 +10°C° 0 mm 2 mps 765 mmHg 52%
    20:00 +9°C° 0 mm 2 mps 765 mmHg 55%
    21:00 +8°C° 0 mm 2 mps 766 mmHg 58%
    22:00 +9°C° 0 mm 1 mps 766 mmHg 61%
    23:00 +8°C° 0 mm 1 mps 766 mmHg 62%

    26 September, Wednesday

    Time Temperature Precipitation Wind Pressure Humidity
    00:00 +8°C° 0 mm 1 mps 766 mmHg 64%
    01:00 +8°C° 0 mm 1 mps 765 mmHg 65%
    02:00 +7°C° 0 mm 1 mps 765 mmHg 66%
    03:00 +7°C° 0 mm 1 mps 765 mmHg 67%
    04:00 +7°C° 0 mm 1 mps 765 mmHg 68%
    05:00 +7°C° 0 mm 1 mps 765 mmHg 65%
    06:00 +8°C° 0 mm 1 mps 765 mmHg 62%
    07:00 +8°C° 0 mm 1 mps 765 mmHg 60%
    08:00 +11°C° 0 mm 1 mps 765 mmHg 52%
    09:00 +13°C° 0 mm 1 mps 765 mmHg 44%
    10:00 +15°C° 0 mm 2 mps 765 mmHg 37%
    11:00 +16°C° 0 mm 2 mps 764 mmHg 33%
    12:00 +17°C° 0 mm 2 mps 764 mmHg 30%
    13:00 +18°C° 0 mm 2 mps 763 mmHg 26%
    14:00 +18°C° 0 mm 3 mps 763 mmHg 27%
    15:00 +18°C° 0 mm 3 mps 763 mmHg 27%
    16:00 +18°C° 0 mm 3 mps 762 mmHg 27%
    17:00 +16°C° 0 mm 2 mps 762 mmHg 32%
    18:00 +14°C° 0 mm 2 mps 763 mmHg 37%
    19:00 +12°C° 0 mm 1 mps 763 mmHg 42%
    20:00 +12°C° 0 mm 1 mps 763 mmHg 44%
    21:00 +11°C° 0 mm 1 mps 763 mmHg 46%
    22:00 +10°C° 0 mm 1 mps 763 mmHg 49%
    23:00 +10°C° 0 mm 1 mps 763 mmHg 50%

    27 September, Thursday

    Time Temperature Precipitation Wind Pressure Humidity
    00:00 +9°C° 0 mm 0 mps 763 mmHg 51%
    01:00 +9°C° 0 mm 0 mps 763 mmHg 53%
    02:00 +8°C° 0 mm 0 mps 763 mmHg 54%
    03:00 +8°C° 0 mm 0 mps 762 mmHg 54%
    04:00 +8°C° 0 mm 0 mps 762 mmHg 55%
    05:00 +10°C° 0 mm 1 mps 762 mmHg 54%
    06:00 +10°C° 0 mm 1 mps 762 mmHg 52%
    07:00 +11°C° 0 mm 1 mps 762 mmHg 50%
    08:00 +13°C° 0 mm 1 mps 762 mmHg 44%
    09:00 +16°C° 0 mm 2 mps 761 mmHg 38%
    10:00 +18°C° 0 mm 2 mps 761 mmHg 32%
    11:00 +19°C° 0 mm 3 mps 760 mmHg 29%
    12:00 +20°C° 0 mm 3 mps 760 mmHg 27%
    13:00 +22°C° 0 mm 3 mps 759 mmHg 24%
    14:00 +22°C° 0 mm 3 mps 759 mmHg 25%
    15:00 +22°C° 0 mm 3 mps 758 mmHg 25%
    16:00 +22°C° 0 mm 3 mps 758 mmHg 25%
    17:00 +19°C° 0 mm 2 mps 757 mmHg 30%
    18:00 +17°C° 0 mm 2 mps 757 mmHg 34%
    19:00 +15°C° 0 mm 2 mps 757 mmHg 39%
    20:00 +14°C° 0 mm 2 mps 757 mmHg 41%
    21:00 +13°C° 0 mm 2 mps 757 mmHg 43%
    22:00 +13°C° 0 mm 1 mps 757 mmHg 45%
    23:00 +12°C° 0 mm 1 mps 757 mmHg 47%
    Show more